Hourly Data Report for May 24, 2012

All times are specified in Local Standard Time (LST). Add 1 hour to adjust for Daylight Saving Time where and when it is observed.

SAULT STE MARIE A
ONTARIO

46°29'06.000" N
84°30'35.000" W
192.00 m
6057591
71260
YAM

Download Data

Hourly Data (May 2012)
Hourly Data Report for May 24, 2012
Temp Definition
°C
Dew Point Temp Definition
°C
Rel Hum Definition
%
Wind Dir Definition
10's deg

Wind Spd Definition
km/h
Visibility Definition
km
Stn Press Definition
kPa
Hmdx Definition


Wind Chill Definition


Weather Definition


TIME
00:00 Legend Double Dagger 13.2 12.3 94 9 13 10.0 98.65     LegendNANA
01:00 Legend Double Dagger 12.6 12.0 96 10 10 10.0 98.73     Clear
02:00 Legend Double Dagger 11.9 11.8 99 8 13 10.0 98.73     LegendNANA
03:00 Legend Double Dagger 11.9 11.4 97 9 13 10.0 98.76     LegendNANA
04:00 Legend Double Dagger 11.9 11.4 97 8 16 10.0 98.70     Clear
05:00 Legend Double Dagger 11.7 11.6 99 8 12 10.0 98.70     LegendNANA
06:00 Legend Double Dagger 12.5 11.7 95 8 13 10.0 98.72     LegendNANA
07:00 Legend Double Dagger 14.6 12.7 88 9 11 10.0 98.75     Mainly Clear
08:00 Legend Double Dagger 17.6 13.6 77 9 15 10.0 98.68     LegendNANA
09:00 Legend Double Dagger 21.1 13.9 63 12 16 10.0 98.65     LegendNANA
10:00 Legend Double Dagger 24.3 14.0 52 15 15 10.0 98.58 28   Mostly Cloudy
11:00 Legend Double Dagger 25.8 12.8 44 18 14 10.0 98.58 28   LegendNANA
12:00 Legend Double Dagger 26.5 12.4 41 17 27 10.0 98.58 29   LegendNANA
13:00 Legend Double Dagger 26.9 13.5 43 14 22 10.0 98.49 30   Mainly Clear
14:00 Legend Double Dagger 28.1 14.9 44 13 19 10.0 98.42 32   LegendNANA
15:00 Legend Double Dagger 27.6 15.2 46 13 21 10.0 98.34 32   LegendNANA
16:00 Legend Double Dagger 27.5 15.7 48 11 21 10.0 98.28 32   Mainly Clear
17:00 Legend Double Dagger 26.3 15.8 52 12 18 10.0 98.20 31   LegendNANA
18:00 Legend Double Dagger 25.1 15.6 55 12 20 10.0 98.10 29   LegendNANA
19:00 Legend Double Dagger 23.9 15.3 58 12 21 10.0 98.00 28   Mainly Clear
20:00 Legend Double Dagger 22.2 15.2 64 12 14 10.0 98.04 26   LegendNANA
21:00 Legend Double Dagger 20.8 15.0 69 12 14 10.0 98.13 25   LegendNANA
22:00 Legend Double Dagger 20.1 15.0 72 10 14 10.0 98.09     Mostly Cloudy
23:00 Legend Double Dagger 19.9 15.2 74 11 10 10.0 98.08     LegendNANA

Notes on Data Quality.

Legend

  • E = Estimated
  • M = Missing
  • NA = Not Available
  • ‡ = Partner data that is not subject to review by the National Climate Archives
Date modified: